Location: Amherst
(42.3800°N, 72.5240°W)
Time: 11:17:24
(UTC-04:00)

ISS - Pass Details

Date: 19 May 2021
Orbit: 417 x 422 km, 51.6° (Epoch: 14 June)

Event Time Altitude Azimuth Distance (km) Brightness Sun altitude
Rises 00:43:30 0° 306° (NW) 2,370 0.6 -27.8°
Reaches altitude 10° 00:45:53 10° 321° (NW) 1,506 -0.3 -27.8°
Enters shadow 00:47:49 21° 353° (N) 1,005 -1.1 -27.8°
